Location: 01445 Radebeul, Deutschland
(51.1161°N, 13.6224°E)
Time: 01:20:03
(UTC+02:00)

ISS - Visible Passes

Search period start: 27 May 2018 00:00
Search period end: 06 June 2018 00:00
Orbit: 402 x 407 km, 51.6° (Epoch: 27 May)

Date Brightness Start Highest point End Pass type
(mag) Time Alt. Az. Time Alt. Az. Time Alt. Az.
27 May -4.0 00:22:15 10° W 00:25:32 74° SSW 00:26:26 43° ESE visible
27 May -3.8 21:53:30 10° W 21:56:47 89° NNW 22:00:04 10° E visible
27 May -3.9 23:30:02 10° W 23:33:20 90° WNW 23:35:43 17° E visible
28 May -2.3 01:06:39 10° W 01:08:21 24° WSW 01:08:21 24° WSW visible
28 May -3.8 22:37:49 10° W 22:41:06 81° N 22:44:23 10° E visible
29 May -3.6 00:14:21 10° W 00:17:31 48° SSW 00:17:42 47° SSW visible
29 May -3.9 23:22:06 10° W 23:25:22 67° SSW 23:27:06 25° ESE visible
30 May -1.5 00:59:02 10° W 00:59:44 13° WSW 00:59:44 13° WSW visible
30 May -3.9 22:29:51 10° W 22:33:09 85° SSW 22:36:25 10° ESE visible
31 May -2.7 00:06:31 10° W 00:09:09 28° SW 00:09:09 28° SW visible
31 May -3.3 23:14:08 10° W 23:17:15 42° SSW 23:18:35 27° SSE visible
01 Jun -3.7 22:21:50 10° W 22:25:04 60° SSW 22:28:03 12° ESE visible
01 Jun -1.8 23:58:57 10° W 00:00:41 16° SW 00:00:41 16° SW visible
02 Jun -2.4 23:06:16 10° W 23:09:00 25° SSW 23:10:11 20° S visible
03 Jun -3.0 22:13:49 10° W 22:16:52 37° SSW 22:19:41 11° SE visible
04 Jun -1.6 22:58:49 10° WSW 23:00:36 14° SW 23:01:52 12° SSW visible
05 Jun -2.1 22:05:56 10° W 22:08:31 21° SW 22:11:06 10° SSE visible
